Meath Environmental Platform

Observations for Trim Market St

Time AQI Temp °C Hum % Pres Pa CO μg/m³ H₂S μg/m³ NO μg/m³ NO₂ μg/m³ O₃ μg/m³ SO₂ μg/m³ PM1 μg/m³ PM2.5 μg/m³ PM10 μg/m³
Friday 21 August 2026
17:04 3 20.1 56 57,854 0 13.63 1.91 63.85 61.09 0 0 2.21 2.54
17:03 3 20 55 57,865 0 11.08 1.81 38.3 79.96 0 0 1.72 1.81
17:02 3 20 55 57,869 0 11.23 1.36 51.71 68.6 0 0.71 3.26 3.95
17:01 3 20.1 55 57,870 0 8.73 1.27 94.92 11.21 0 1.43 3.27 3.94
16:59 3 20.2 54 57,866 0 12.45 1.16 36.4 109.36 0 0 2.28 2.47
16:58 3 20.3 54 57,859 0 10.71 1.15 30.51 79.16 0 0 1.79 3.18
16:57 3 20.4 53 57,846 0 9.92 1.33 39.7 82.89 0 0 1.8 1.98
16:56 3 20.5 53 57,825 0 9.87 1.48 30.75 83.21 0 0 1.82 2
16:54 3 20.7 52 57,752 0 10.48 2.21 82.15 20.09 0 0 1.85 2.04
16:53 3 20.8 52 57,696 0 8.05 2.02 25.93 77.49 0 0 1.86 2.05
16:52 3 20.9 52 57,624 0 8.77 1.32 41.12 62.7 0 0 1.88 2.06
16:51 3 21.1 51 57,526 0 8.42 1.36 40.61 60.88 0 0 1.89 2.08
16:49 3 21.4 50 57,385 0 8.69 1.39 36.45 67.67 0 0 1.93 2.12
16:48 3 21.5 50 57,347 0 8.53 1.44 38.82 67.28 0 0 1.94 2.14
16:47 3 21.6 50 57,384 0 7.18 1.5 32.94 61.13 0 0 1.96 2.15
16:39 3 22.6 46 63,864 0 5.27 1.7 29.78 98.27 0 0 2.12 2.33
16:38 3 22.7 45 64,550 0 0 1.74 26.67 62.5 0 0 2.14 2.36
16:37 3 22.8 45 64,787 0 0 1.68 22.12 62.95 0 0 2.67 2.87
16:31 3 23.2 44 65,137 0.07 0 2.95 43.66 59.48 0 0 2.18 2.4
16:28 3 23.4 44 65,172 0.27 0 15.44 72.18 47.59 0 0 2.19 2.41